This demonstration page uses our WeatherBlox Daily Observations layout. Learn more.

Left ArrowRight Arrow

Hourly Observations for June 17, 2016

Temp ( °F °C ) Dew Point ( °F °C ) Humidity (%) Winds ( mph kmh ) Pressure ( in mb ) Visibility ( mi km ) Precip ( " mm )
12:54 am 00:54 Clear 83 28.3 71 21.7 67 67 SSE 9 15 29.83 1010 10 16.0934 0 0
1:54 am 01:54 Clear 81 27.2 72 22.2 74 74 SSE 9 15 29.84 1010 10 16.0934 0 0
2:54 am 02:54 Clear 80 26.7 73 22.8 79 79 SSE 8 13 29.84 1011 10 16.0934 0 0
3:54 am 03:54 Clear 80 26.7 73 22.8 79 79 SE 7 11 29.84 1011 10 16.0934 0 0
4:54 am 04:54 Clear 79 26.1 72 22.2 79 79 ESE 7 11 29.86 1011 10 16.0934 0 0
5:54 am 05:54 Clear 78 25.6 72 22.2 82 82 ESE 7 11 29.87 1012 10 16.0934 0 0
6:54 am 06:54 Sunny 79 26.1 72 22.2 79 79 SSE 7 11 29.88 1012 8 12.87472 0 0
7:54 am 07:54 Sunny 81 27.2 73 22.8 77 77 SSE 8 13 29.89 1012 9 14.48406 0 0
8:54 am 08:54 Sunny 84 28.9 74 23.3 72 72 SSE 8 13 29.91 1013 10 16.0934 0 0
9:54 am 09:54 Sunny 87 30.6 74 23.3 65 65 SSE 7 11 29.91 1013 10 16.0934 0 0
10:54 am 10:54 Sunny 90 32.2 75 23.9 62 62 SSE 9 15 29.91 1013 10 16.0934 0 0
11:54 am 11:54 Sunny 93 33.9 75 23.9 56 56 SE 10 17 29.91 1013 10 16.0934 0 0
12:54 pm 12:54 Sunny 95 35 75 23.9 53 53 SE 8 13 29.91 1013 10 16.0934 0 0
1:54 pm 13:54 Mostly Sunny 97 36.1 76 24.4 51 51 ESE 8 13 29.91 1013 10 16.0934 0 0
2:54 pm 14:54 Partly Cloudy 98 36.7 75 23.9 48 48 ESE 10 17 29.9 1013 10 16.0934 0 0
3:54 pm 15:54 Mostly Sunny 98 36.7 74 23.3 46 46 ESE 9 15 29.9 1013 10 16.0934 0 0
4:54 pm 16:54 Mostly Sunny 99 37.2 74 23.3 45 45 ESE 13 20 29.9 1012 10 16.0934 0 0
5:54 pm 17:54 Mostly Sunny 98 36.7 73 22.8 45 45 ESE 15 24 29.88 1012 10 16.0934 0 0
6:54 pm 18:54 Sunny 96 35.6 74 23.3 49 49 ESE 14 22 29.85 1011 10 16.0934 0 0
7:54 pm 19:54 Sunny 92 33.3 74 23.3 56 56 ESE 15 24 29.85 1011 10 16.0934 0 0
8:54 pm 20:54 Sunny 90 32.2 71 21.7 54 54 SE 16 26 29.91 1013 10 16.0934 0 0
9:54 pm 21:54 Clear 89 31.7 71 21.7 55 55 ESE 14 22 29.95 1014 10 16.0934 0 0
10:54 pm 22:54 Clear 87 30.6 71 21.7 59 59 SE 13 20 29.96 1015 10 16.0934 0 0
11:54 pm 23:54 Clear 85 29.4 71 21.7 63 63 SE 14 22 29.95 1014 10 16.0934 0 0

Powered by AerisWeather